Date,TemperatureHighF,TemperatureAvgF,TemperatureLowF,DewpointHighF,DewpointAvgF,DewpointLowF,HumidityHigh,HumidityAvg,HumidityLow,PressureMaxIn,PressureMinIn,WindSpeedMaxMPH,WindSpeedAvgMPH,GustSpeedMaxMPH,PrecipitationSumIn
2013-1-1,28.7,13.5,1.5,16.0,6.0,-4.0,83,73,56,30.48,30.19,13,3,0,0.00
2013-1-2,26.3,11.6,1.5,12.0,3.5,-4.0,79,71,53,30.56,30.37,7,2,0,0.00
2013-1-3,29.1,11.2,-1.2,9.0,1.1,-7.0,78,66,41,30.70,30.45,6,2,0,0.00
2013-1-4,26.4,10.9,-1.2,11.0,1.5,-7.0,77,67,50,30.67,30.42,8,2,0,0.00
2013-1-5,29.8,11.5,-1.8,10.0,1.6,-8.0,78,66,42,30.75,30.49,6,2,0,0.00
2013-1-6,42.2,21.7,1.7,15.0,6.2,-5.0,77,56,26,30.68,30.04,6,2,0,0.00
2013-1-7,40.5,25.6,11.4,16.0,10.8,6.0,79,56,28,30.16,29.95,11,2,0,0.00
2013-1-8,36.8,19.0,4.5,16.0,9.2,-1.0,79,67,42,30.42,30.07,6,2,0,0.00
2013-1-9,47.4,25.5,7.9,18.0,11.7,3.0,81,61,26,30.63,30.16,8,2,0,0.00
2013-1-10,41.8,29.2,14.9,23.0,15.8,9.0,78,60,36,30.16,29.56,7,2,0,0.00
2013-1-11,38.8,21.3,-0.2,29.0,9.2,-8.0,92,62,31,30.14,29.39,24,9,0,0.00
2013-1-12,23.2,6.3,-6.3,8.0,-5.2,-14.0,74,61,36,30.34,30.09,11,2,0,0.00
2013-1-13,25.6,12.4,-4.8,8.0,1.1,-13.0,75,62,38,30.31,30.09,7,2,0,0.00
2013-1-14,22.4,12.7,-4.8,12.0,3.8,-12.0,82,68,47,30.40,30.07,12,2,0,0.01
2013-1-15,25.4,4.5,-10.7,2.0,-7.9,-19.0,71,58,35,30.72,30.40,7,2,0,0.00
2013-1-16,27.5,11.2,-1.4,6.0,-1.3,-9.0,72,59,37,30.80,30.58,7,1,0,0.00
2013-1-17,37.9,17.8,2.2,15.0,5.9,-4.0,78,62,37,30.83,30.52,5,1,0,0.00
2013-1-18,39.2,20.9,5.2,19.0,11.0,0.0,82,68,44,30.66,30.38,7,2,0,0.00
2013-1-19,38.6,20.5,7.0,19.0,11.3,2.0,82,69,43,30.63,30.41,5,2,0,0.00
2013-1-20,38.9,20.4,6.0,20.0,11.4,1.0,82,70,45,30.60,30.32,7,2,0,0.00
2013-1-21,40.2,22.9,7.6,21.0,12.9,3.0,82,68,41,30.56,30.34,8,2,0,0.00
2013-1-22,43.5,24.2,10.7,20.0,14.2,6.0,82,68,37,30.57,30.35,6,2,0,0.00
2013-1-23,47.9,28.2,11.2,23.0,16.2,6.0,82,64,32,30.60,30.29,6,2,0,0.00
2013-1-24,50.4,36.0,24.8,31.0,22.4,18.0,82,61,29,30.36,30.15,7,1,0,0.00
2013-1-25,47.7,39.6,34.7,38.0,33.9,30.0,88,80,69,30.23,30.05,5,1,0,0.01
2013-1-26,42.1,39.6,36.6,40.0,37.2,33.0,95,91,83,30.04,29.72,8,2,0,0.63
2013-1-27,52.0,41.6,36.6,44.0,37.8,35.0,96,87,52,29.82,29.70,7,1,0,0.17
2013-1-28,40.9,34.7,29.1,38.0,32.4,25.0,94,91,84,29.74,29.60,9,2,0,0.31
2013-1-29,30.4,25.9,21.4,25.0,14.9,9.0,86,64,45,30.07,29.70,22,8,0,0.00
2013-1-30,38.3,28.8,20.2,23.0,15.7,10.0,71,59,42,30.23,30.07,19,7,0,0.00
2013-1-31,46.7,33.4,20.8,29.0,23.5,17.0,88,69,36,30.30,30.12,15,2,0,0.00